Flag for Switzerland Weather past 2 weeks in Kloten, Zurich, Switzerland

Now
57 °F

Clear.


Feels Like: 57 °F
Forecast: 53 / 71 °F
Wind: 2 mph from North

Location: Zurich-Kloten

Current Time: Aug 29, 2014 at 5:56:04 AM

Latest Report: Aug 29, 2014 at 5:20 AM


Visibility: 10 mi

Pressure: 30.07 "Hg

Humidity: 100%

Dew point: 57 °F

Location of KlotenLocation

Historic Weather in Kloten — Graph

°F

Kloten temperature yesterday

Maximum temperature yesterday: 75 °F (at 2:50 PM)
Minimum temperature yesterday: 55 °F (at 2:50 AM)
Average temperature yesterday: 65 °F

Past Weeks' High & Low Weather Summary

 TemperatureHumidityPressure
High75 °F (Aug 28, 2:50 PM)100% (Aug 15, 4:20 AM)30.21 "Hg (Aug 15, 4:20 AM)
Low45 °F (Aug 17, 6:50 AM)43% (Aug 17, 3:20 PM)29.80 "Hg (Aug 26, 5:20 AM)
Average59 °F78%30.03 "Hg
* Reported Aug 14 4:20 AM — Aug 29 4:50 AM, Kloten, Weather by CustomWeather, © 2014

Note: Actual official high and low records may vary slightly from our data, if they occured in-between our weather recording intervals... More about our weather records

Advertising

Kloten weather history for previous 24 hours

 ConditionsComfort  
Time TempWeatherWind HumidityBarometerVisibility
4:50 AM
Aug 29
57 °FClear.1 mph100%30.07 "Hg10 mi
4:20 AM57 °FClear.1 mph94%30.07 "Hg10 mi
3:50 AM57 °FClear.2 mph100%30.07 "Hg10 mi
3:20 AM57 °FClear.2 mph100%30.09 "Hg10 mi
2:50 AM59 °FPassing clouds.2 mph94%30.09 "HgN/A
1:50 AM59 °FPassing clouds.2 mph100%30.09 "HgN/A
1:20 AM59 °FPassing clouds.1 mph100%30.09 "HgN/A
12:50 AM61 °FPassing clouds.1 mph94%30.09 "HgN/A
12:20 AM63 °FPassing clouds.1 mph88%30.09 "HgN/A
11:50 PM
Aug 28
63 °FPartly cloudy.2 mph88%30.09 "HgN/A
11:20 PM66 °FPartly cloudy.1 mph83%30.09 "HgN/A
10:50 PM64 °FPassing clouds.1 mph88%30.09 "HgN/A
10:20 PM64 °FPassing clouds.2 mph83%30.07 "HgN/A
9:50 PM66 °FPassing clouds.3 mph83%30.07 "HgN/A
9:20 PM68 °FPassing clouds.2 mph78%30.07 "HgN/A
8:50 PM70 °FScattered clouds.1 mph73%30.07 "HgN/A
8:20 PM72 °FScattered clouds.2 mph65%30.07 "HgN/A
7:50 PM72 °FScattered clouds.5 mph61%30.07 "HgN/A
7:20 PM72 °FScattered clouds.5 mph61%30.07 "HgN/A
6:50 PM73 °FScattered clouds.6 mph57%30.07 "HgN/A
6:20 PM73 °FScattered clouds.6 mph57%30.07 "HgN/A
5:20 PM75 °FScattered clouds.3 mph54%30.07 "HgN/A
4:50 PM75 °FScattered clouds.3 mph50%30.04 "HgN/A
4:20 PM75 °FScattered clouds.3 mph54%30.07 "HgN/A
3:50 PM73 °FPassing clouds.5 mph53%30.07 "HgN/A
3:20 PM75 °FPassing clouds.3 mph50%30.07 "HgN/A
2:50 PM75 °FPassing clouds.3 mph54%30.07 "HgN/A
2:20 PM73 °FPassing clouds.2 mph57%30.07 "HgN/A
1:50 PM72 °FPassing clouds.3 mph57%30.07 "HgN/A
1:20 PM72 °FPassing clouds.2 mph57%30.09 "HgN/A
12:50 PM70 °FPassing clouds.5 mph64%30.09 "HgN/A
12:20 PM70 °FPassing clouds.3 mph69%30.09 "HgN/A
11:50 AM68 °FPassing clouds.6 mph69%30.09 "HgN/A
11:20 AM66 °FPassing clouds.3 mph73%30.09 "HgN/A
10:50 AM66 °FPassing clouds.1 mph78%30.09 "HgN/A
10:20 AM64 °FPassing clouds.3 mph78%30.09 "Hg5 mi
9:50 AM63 °FPassing clouds.2 mph83%30.09 "Hg4 mi
9:20 AM61 °FPassing clouds.3 mph88%30.09 "Hg4 mi
8:50 AM59 °FFog.1 mph94%30.09 "Hg3 mi
8:20 AM57 °FFog.1 mph100%30.09 "Hg4 mi
7:50 AM57 °FCool.2 mph100%30.09 "Hg4 mi
7:20 AM55 °FCool.3 mph100%30.09 "Hg3 mi
6:50 AM55 °FFog.2 mph100%30.09 "Hg4 mi
6:20 AM55 °FPassing clouds.2 mph100%30.07 "HgN/A
5:50 AM55 °FFog.3 mph100%30.07 "HgN/A
5:20 AM55 °FFog.1 mph100%30.07 "HgN/A
Weather by CustomWeather, © 2014

See weather overviewHow to use our weather pages